Simultaneous Nadir Overpasses (SNOs) Predictions

Prediction of SNOs between GOES-17 and AQUA Satellite Orbit:

Table of predicted SNOs for the next 14.0 days since TLE Epoch: 6/5/2021
Index Date Time (GOES-17) GOES-17 Lat,Lon AQUA Lat,Lon Distance(km) Time Diff (sec)
1 06/06/2021 22:27:33 -0.00,-137.18 0.81,-133.48 421.08 80
2 06/07/2021 10:51:28 0.01,-137.17 0.33,-138.63 165.87 80
3 06/09/2021 10:36:37 -0.00,-137.15 -0.31,-135.68 168.01 80
4 06/09/2021 22:58:01 -0.00,-137.15 -0.79,-140.87 422.79 80
5 06/11/2021 22:45:50 0.01,-137.12 -0.14,-137.91 89.88 80
6 06/13/2021 22:36:18 0.01,-137.08 0.45,-134.95 242.48 80
7 06/14/2021 10:57:33 -0.01,-137.08 0.64,-140.11 345.08 80
8 06/16/2021 10:45:21 -0.01,-137.03 0.05,-137.15 13.71 80
9 06/18/2021 10:30:31 -0.01,-136.99 -0.61,-134.19 317.91 80
10 06/18/2021 22:51:53 0.00,-136.97 -0.53,-139.38 273.62 80
